Temp
4 4 4 5 5 5 6 6 7 7 7 7 7 8 8 8 9 9 9 9 9 10 10 10 10 10 10 10 11 10 10 11 11 11 11 11 11 11 12 13 14 15 15 15 15 15 15
3 4 4 4 5 5 5 6 6 7 7 7 7 8 8 8 8 9 9 9 9 9 10 10 10 10 10 10 9 10 10 11 11 11 11 11 11 12 13 13 14 14 15 15 15 15 15
3 3 4 4 4 4 5 6 6 6 7 7 7 7 8 8 8 8 9 9 9 9 10 10 10 10 10 11 10 9 10 10 10 11 10 10 11 12 12 12 13 14 14 14 15 15 15
2 3 3 4 4 4 4 5 5 6 6 6 7 7 8 8 8 8 9 9 9 9 9 9 9 10 11 10 11 11 10 10 10 10 10 11 11 11 12 12 13 14 14 14 15 15 13
1 2 3 3 3 4 4 4 5 6 6 6 7 7 7 7 8 8 9 9 9 9 9 9 9 10 10 11 11 11 11 10 10 10 10 10 10 11 11 12 13 14 14 15 15 13 13
-1 1 2 3 3 3 4 4 5 5 6 6 6 7 7 7 8 8 8 9 9 9 9 9 9 10 10 10 10 11 11 10 10 10 10 10 10 11 12 13 14 14 15 15 14 13 13
-2 -0 1 2 3 3 3 4 4 5 5 5 6 6 7 7 7 8 8 8 8 8 9 9 7 9 8 9 11 11 11 10 10 10 10 11 11 12 13 13 14 14 15 15 14 14 14
-4 -2 0 1 2 3 3 4 4 4 5 5 6 6 7 7 7 8 8 8 9 9 9 10 10 10 9 10 10 10 9 9 9 11 11 11 12 13 13 14 13 13 14 14 15 15 14
-5 -4 -1 1 2 2 3 3 4 4 5 4 6 6 6 7 7 8 8 9 9 9 9 9 10 10 10 10 10 10 9 10 10 11 12 12 13 13 13 13 13 13 13 14 14 14 14
-5 -5 -2 -0 1 2 2 3 4 4 4 4 5 5 6 6 7 7 8 8 9 9 8 8 10 10 9 9 9 10 10 10 11 11 12 12 13 13 12 13 13 13 14 14 14 14 14
-5 -5 -4 -1 1 1 2 2 3 3 4 4 5 5 6 6 6 7 9 8 9 9 11 10 9 10 9 10 10 10 10 10 11 12 12 12 13 13 12 12 12 13 13 13 13 13 14
-5 -5 -5 -3 -0 1 1 2 3 3 4 4 4 5 5 6 6 7 8 8 8 8 10 10 9 10 9 9 10 10 10 10 11 12 12 12 13 12 12 12 12 12 12 12 12 13 14
-6 -5 -5 -4 -1 0 1 2 2 3 3 3 4 4 5 5 6 7 7 8 7 9 11 10 9 9 9 10 10 10 10 10 11 12 12 12 12 12 12 12 12 12 12 12 13 13 14
-6 -6 -5 -5 -2 -0 0 1 2 2 3 3 4 4 5 5 6 6 7 7 7 11 11 11 10 10 11 11 11 11 11 11 11 12 13 13 13 12 12 11 12 12 13 13 12 13 14
-7 -6 -6 -6 -3 -1 -0 1 2 2 3 3 3 4 4 5 5 6 6 5 10 11 11 11 10 10 11 11 11 11 11 12 12 12 12 13 13 12 11 11 11 12 13 13 13 13 13
-8 -6 -5 -5 -4 -2 -1 0 1 2 2 3 3 3 4 4 5 5 6 7 9 9 10 11 11 11 11 11 11 11 11 11 11 10 10 11 12 12 11 11 11 11 12 12 11 11 8
-9 -7 -5 -6 -4 -2 -1 0 1 1 2 2 2 3 4 4 4 5 5 7 7 8 9 9 11 11 12 11 11 11 11 10 10 10 10 11 11 11 11 11 11 11 11 11 11 12 12
-9 -8 -6 -5 -4 -3 -2 -0 0 1 1 2 2 2 3 4 4 5 6 6 6 7 9 9 10 11 11 11 11 12 11 9 9 9 10 10 10 12 11 10 10 10 10 10 10 11 10
-9 -8 -7 -6 -5 -3 -2 -1 0 1 1 2 1 2 3 3 4 4 4 5 6 7 7 8 9 10 10 10 10 10 9 9 9 9 9 9 10 11 11 10 10 10 10 10 10 10 10
-9 -9 -7 -6 -5 -3 -2 -1 -0 0 1 1 0 1 2 3 3 4 4 5 6 7 7 8 8 8 9 9 9 9 8 9 9 9 9 9 9 10 10 9 9 10 9 9 9 9 10
-9 -8 -7 -6 -6 -4 -3 -1 -1 0 1 0 1 1 3 3 4 4 4 5 6 6 6 7 8 8 9 9 9 9 8 8 8 9 9 8 9 9 9 9 8 8 8 8 8 8 8
-9 -8 -8 -6 -6 -4 -3 -2 -1 -0 0 1 1 0 2 2 4 4 4 5 6 6 6 7 8 8 9 9 9 9 8 8 8 8 7 8 8 8 8 8 8 8 7 7 7 7 7
-9 -8 -7 -6 -6 -5 -3 -2 -1 -1 -0 0 0 1 2 2 3 4 4 5 6 6 7 7 8 8 8 7 7 8 8 7 7 7 7 7 7 8 8 8 7 7 6 6 6 5 6
-9 -8 -7 -6 -6 -5 -3 -2 -2 -1 -0 0 1 2 1 3 3 4 4 5 6 5 6 6 7 7 7 7 7 7 7 7 7 6 6 7 7 7 8 7 3 5 5 5 5 4 4
-9 -7 -7 -6 -6 -5 -4 -3 -2 -1 -0 1 1 2 2 2 3 3 3 4 5 5 5 6 6 6 6 6 6 6 5 6 6 5 6 7 7 6 6 6 6 5 5 5 5 4 3
-9 -8 -7 -6 -6 -5 -4 -3 -2 -1 -0 1 1 1 2 1 2 2 3 3 4 3 4 5 5 5 6 5 6 6 6 6 7 6 5 6 6 6 5 6 6 6 5 4 4 4 2
-9 -8 -7 -7 -6 -5 -4 -3 -2 -2 -1 0 1 1 1 1 2 2 2 2 3 3 3 5 5 5 5 5 6 5 6 6 7 6 5 5 5 6 5 5 6 5 4 4 4 3 2
-9 -8 -7 -7 -6 -5 -4 -4 -3 -2 -1 0 -0 0 0 2 2 3 3 3 3 3 3 4 4 4 4 4 5 5 5 5 6 7 6 6 6 6 6 6 5 4 3 4 3 3 3
-9 -8 -7 -7 -6 -5 -5 -4 -3 -2 -1 -1 -0 0 0 2 3 3 3 3 4 3 3 3 3 4 3 4 5 5 5 4 6 6 6 6 6 6 6 4 4 3 3 3 3 3 3
Height
3099 3102 3104 3106 3109 3111 3112 3115 3118 3121 3124 3127 3130 3133 3134 3136 3138 3139 3140 3141 3143 3144 3144 3145 3147 3149 3149 3150 3152 3149 3152 3152 3154 3156 3158 3161 3167 3169 3171 3172 3173 3171 3171 3170 3168 3168 3168
3093 3096 3099 3101 3104 3106 3108 3110 3113 3116 3118 3122 3126 3128 3130 3131 3134 3135 3137 3138 3140 3141 3141 3141 3143 3145 3146 3148 3150 3147 3150 3151 3153 3154 3157 3160 3166 3169 3170 3170 3170 3168 3167 3167 3167 3167 3167
3086 3089 3092 3096 3099 3102 3104 3106 3108 3111 3113 3117 3121 3124 3125 3127 3130 3132 3133 3135 3137 3136 3137 3137 3139 3141 3143 3147 3146 3149 3148 3150 3151 3154 3156 3161 3166 3168 3168 3167 3168 3168 3167 3166 3165 3164 3162
3078 3083 3086 3090 3093 3096 3100 3102 3104 3108 3108 3114 3117 3120 3121 3124 3126 3128 3130 3132 3134 3134 3134 3134 3135 3138 3140 3143 3144 3145 3146 3149 3151 3155 3157 3161 3164 3164 3165 3166 3165 3165 3165 3163 3161 3159 3156
3069 3075 3080 3084 3087 3092 3095 3098 3100 3104 3105 3110 3114 3116 3118 3120 3123 3124 3127 3130 3131 3131 3131 3132 3134 3135 3138 3139 3141 3143 3144 3147 3151 3152 3155 3158 3160 3161 3163 3163 3164 3162 3160 3156 3158 3159 3157
3061 3066 3073 3078 3082 3086 3091 3094 3097 3100 3102 3106 3110 3113 3115 3117 3120 3121 3125 3127 3128 3129 3129 3130 3132 3136 3136 3136 3139 3140 3142 3145 3150 3153 3155 3156 3157 3159 3160 3160 3158 3155 3153 3155 3156 3157 3160
3052 3058 3064 3071 3076 3080 3086 3090 3094 3096 3099 3103 3107 3110 3112 3114 3117 3119 3124 3125 3129 3129 3126 3129 3129 3130 3132 3133 3134 3137 3140 3143 3147 3151 3152 3154 3156 3155 3155 3155 3154 3153 3151 3152 3152 3151 3153
3044 3049 3056 3062 3069 3075 3080 3085 3090 3093 3097 3100 3104 3107 3109 3112 3115 3118 3121 3122 3123 3126 3125 3125 3126 3127 3128 3130 3132 3134 3139 3143 3145 3148 3151 3154 3151 3152 3152 3152 3151 3152 3151 3151 3151 3152 3153
3034 3041 3047 3054 3062 3069 3075 3080 3086 3089 3094 3098 3100 3104 3107 3109 3113 3116 3118 3120 3121 3123 3124 3124 3125 3125 3128 3130 3131 3135 3137 3140 3143 3146 3147 3148 3149 3148 3149 3150 3150 3151 3151 3151 3150 3149 3149
3025 3033 3039 3045 3054 3062 3069 3075 3081 3086 3090 3095 3097 3101 3105 3106 3113 3113 3116 3118 3121 3123 3124 3124 3124 3124 3126 3128 3130 3135 3135 3140 3142 3144 3146 3146 3146 3147 3148 3149 3151 3149 3148 3148 3147 3148 3147
3017 3025 3031 3038 3046 3055 3062 3069 3076 3081 3086 3092 3094 3098 3101 3105 3109 3111 3115 3117 3120 3122 3121 3122 3120 3121 3123 3127 3130 3131 3134 3138 3140 3142 3144 3144 3144 3145 3146 3148 3148 3147 3147 3147 3146 3145 3143
3006 3016 3024 3030 3038 3047 3056 3064 3070 3077 3083 3088 3092 3095 3098 3102 3105 3109 3112 3116 3120 3124 3118 3119 3118 3119 3122 3126 3129 3130 3132 3135 3138 3139 3141 3141 3142 3143 3144 3144 3145 3145 3145 3145 3143 3141 3137
2999 3009 3017 3023 3031 3040 3050 3058 3065 3072 3078 3084 3089 3092 3096 3099 3104 3107 3110 3115 3121 3118 3115 3118 3117 3118 3123 3126 3129 3130 3132 3134 3136 3139 3138 3138 3139 3140 3142 3142 3143 3143 3143 3141 3136 3133 3131
2991 3002 3011 3017 3024 3034 3043 3052 3060 3067 3074 3080 3085 3089 3093 3097 3102 3105 3109 3114 3115 3112 3113 3114 3117 3120 3124 3126 3128 3130 3132 3133 3134 3135 3133 3132 3135 3137 3139 3141 3141 3139 3140 3138 3134 3130 3130
2984 2994 3004 3012 3018 3028 3038 3046 3055 3062 3069 3076 3081 3086 3090 3095 3099 3103 3107 3110 3110 3110 3112 3114 3118 3121 3122 3125 3128 3130 3131 3131 3132 3135 3135 3132 3133 3136 3138 3139 3141 3138 3137 3137 3135 3132 3129
2978 2986 2996 3005 3013 3023 3032 3040 3050 3058 3066 3072 3077 3083 3087 3092 3096 3100 3104 3105 3107 3107 3110 3114 3116 3119 3121 3123 3127 3129 3131 3130 3132 3133 3134 3135 3135 3137 3138 3139 3139 3139 3139 3137 3137 3137 3142
2972 2980 2990 2999 3008 3018 3028 3036 3046 3054 3062 3068 3074 3080 3085 3089 3093 3097 3099 3105 3106 3106 3109 3113 3115 3117 3119 3121 3124 3127 3130 3131 3132 3134 3135 3136 3137 3138 3138 3138 3138 3139 3139 3138 3138 3136 3133
2965 2975 2984 2993 3003 3013 3022 3031 3041 3050 3058 3065 3071 3077 3081 3085 3091 3093 3097 3102 3103 3105 3109 3110 3112 3116 3118 3120 3123 3125 3126 3128 3131 3133 3136 3136 3136 3135 3137 3138 3139 3140 3141 3141 3141 3139 3138
2961 2970 2979 2988 2997 3007 3017 3027 3036 3046 3054 3059 3067 3073 3077 3082 3087 3091 3095 3098 3102 3105 3108 3111 3113 3115 3118 3121 3124 3124 3125 3129 3131 3132 3134 3136 3138 3136 3136 3141 3140 3140 3142 3142 3141 3140 3137
2959 2964 2974 2984 2992 3002 3013 3023 3032 3041 3050 3059 3066 3070 3074 3078 3082 3088 3093 3097 3100 3102 3106 3110 3113 3116 3119 3121 3123 3125 3126 3128 3130 3132 3135 3137 3138 3139 3140 3141 3143 3142 3142 3142 3141 3141 3139
2950 2957 2967 2979 2988 2998 3009 3018 3028 3037 3047 3055 3063 3069 3070 3074 3080 3085 3091 3096 3100 3101 3104 3109 3112 3116 3119 3121 3123 3124 3126 3127 3130 3132 3134 3137 3139 3140 3141 3143 3143 3142 3143 3143 3143 3143 3143
2948 2955 2965 2975 2985 2994 3005 3013 3023 3034 3042 3053 3059 3063 3068 3072 3079 3084 3088 3093 3098 3102 3104 3108 3112 3115 3118 3122 3123 3124 3126 3128 3130 3132 3134 3136 3139 3140 3141 3142 3143 3143 3144 3145 3145 3146 3147
2943 2952 2963 2972 2982 2991 3001 3011 3021 3030 3040 3049 3054 3062 3066 3070 3076 3081 3085 3091 3098 3100 3103 3108 3111 3115 3116 3117 3119 3120 3123 3126 3130 3133 3134 3136 3137 3140 3140 3142 3143 3146 3146 3146 3147 3147 3148
2940 2950 2959 2969 2979 2987 2998 3009 3018 3028 3037 3043 3049 3058 3064 3070 3074 3080 3086 3091 3096 3098 3103 3105 3108 3111 3115 3118 3120 3123 3125 3127 3130 3131 3134 3136 3138 3139 3140 3142 3146 3145 3145 3147 3147 3149 3149
2939 2949 2957 2968 2977 2986 2996 3006 3015 3025 3032 3043 3052 3059 3062 3070 3075 3079 3084 3089 3092 3097 3101 3102 3105 3109 3114 3117 3122 3124 3127 3129 3130 3131 3132 3136 3137 3139 3140 3142 3145 3144 3145 3147 3148 3150 3149
2937 2947 2955 2965 2975 2984 2993 3003 3012 3022 3031 3043 3051 3058 3064 3070 3074 3078 3084 3087 3089 3094 3097 3101 3104 3108 3114 3117 3122 3124 3126 3128 3129 3130 3131 3133 3135 3139 3140 3141 3143 3142 3144 3145 3146 3149 3148
2935 2942 2951 2963 2973 2983 2991 3001 3011 3021 3031 3040 3049 3055 3063 3065 3071 3074 3081 3085 3089 3093 3098 3100 3104 3109 3113 3117 3121 3124 3125 3126 3127 3129 3130 3132 3134 3136 3138 3140 3142 3142 3143 3143 3147 3151 3146
2935 2942 2951 2963 2972 2981 2990 2999 3010 3020 3029 3038 3047 3053 3060 3063 3068 3072 3075 3079 3086 3092 3095 3098 3104 3108 3113 3116 3120 3122 3123 3125 3126 3128 3129 3131 3133 3135 3137 3139 3141 3140 3142 3145 3143 3143 3143
2934 2940 2952 2961 2970 2979 2989 2998 3009 3018 3028 3036 3045 3052 3057 3064 3068 3073 3078 3082 3085 3088 3092 3098 3104 3107 3111 3115 3119 3120 3122 3123 3126 3128 3129 3132 3133 3133 3135 3136 3137 3138 3139 3140 3141 3142 3141
Wind_Speed
36 36 33 32 32 31 30 30 31 30 29 28 28 28 25 24 24 22 21 21 21 21 20 19 19 15 12 12 12 17 12 11 13 13 15 17 15 14 16 16 17 21 21 21 22 22 16
38 36 34 33 32 31 30 30 28 28 27 27 28 27 25 23 23 22 20 19 19 19 19 19 20 18 14 12 6 17 10 8 11 12 14 14 12 13 15 17 19 20 17 19 19 21 22
41 38 35 34 33 31 29 29 27 27 24 25 26 25 24 22 21 20 18 17 17 17 17 18 20 21 17 10 14 10 10 8 7 10 13 10 13 16 13 16 16 19 21 21 21 22 26
41 40 37 35 33 30 29 28 27 27 23 24 25 24 22 21 19 18 16 15 15 15 15 16 18 20 18 16 14 13 10 11 12 13 13 12 14 17 18 17 18 17 19 23 23 23 2
42 41 39 36 34 32 30 28 26 26 23 24 24 23 21 19 18 15 14 14 13 12 11 13 15 17 12 18 15 12 11 11 11 12 12 13 13 14 14 16 19 20 25 28 18 12 17
43 42 41 38 36 32 31 28 26 26 23 23 23 22 20 18 17 14 14 12 10 10 9 10 11 11 14 12 10 17 13 14 13 12 13 13 12 14 16 18 25 22 26 15 18 18 2
44 43 41 40 38 34 33 30 28 26 24 23 23 21 19 17 16 14 13 11 8 9 10 12 7 10 3 15 20 13 13 15 13 16 16 14 13 17 17 18 20 19 23 13 9 10 14
41 43 43 41 40 36 34 31 29 26 25 24 23 20 19 17 15 14 13 13 11 11 8 12 11 18 14 6 11 11 12 16 17 18 16 15 19 15 18 14 9 13 17 19 20 18 4
46 43 44 42 41 39 36 33 31 27 27 25 23 21 19 17 15 14 14 11 9 10 6 8 9 11 10 9 8 9 16 17 16 16 18 18 16 9 6 12 14 16 19 19 21 20 14
38 36 45 44 42 41 38 34 32 29 28 26 23 21 20 18 17 16 15 11 9 8 6 9 8 8 12 10 10 10 13 13 16 16 16 19 17 14 11 14 14 18 14 16 13 14 21
46 39 38 45 43 42 38 36 34 31 29 27 24 23 20 18 16 17 13 11 10 10 4 9 11 12 9 14 5 15 13 14 16 14 14 18 15 16 13 17 16 20 16 13 16 20 23
31 41 37 46 44 42 39 37 35 32 30 27 25 24 22 21 19 15 14 13 11 6 6 9 7 10 18 11 8 10 12 13 10 13 13 15 6 9 11 11 10 13 14 16 19 22 20
44 44 37 39 45 43 40 38 36 33 30 28 27 25 22 20 20 17 17 15 8 7 11 9 9 14 14 9 10 11 13 13 11 9 13 12 15 11 9 10 10 10 10 16 15 15 7
36 46 38 37 46 43 41 39 37 34 31 30 28 25 23 21 18 18 19 20 7 11 9 9 15 15 12 12 10 12 11 12 11 9 11 13 14 10 7 4 11 9 14 14 15 11 7
46 32 45 39 44 43 41 39 38 34 32 31 28 26 24 22 21 21 22 11 9 7 13 13 14 15 13 14 7 10 10 8 6 9 7 9 7 3 1 3 6 5 9 8 10 16 17
43 30 46 43 42 42 41 39 38 34 34 31 28 26 26 22 21 23 25 13 6 10 12 14 15 16 13 15 9 12 11 5 3 6 5 4 1 3 1 3 2 6 6 9 3 4 5
32 47 38 40 40 41 40 40 37 35 33 30 26 24 25 24 23 25 23 7 9 13 19 10 15 14 11 16 12 12 10 4 7 2 4 3 7 4 4 2 3 6 5 7 10 10 6
29 41 32 45 41 41 40 40 37 35 33 30 27 20 25 24 25 26 22 8 13 10 23 15 9 12 8 11 10 10 11 6 11 9 3 6 3 1 6 1 2 4 6 8 8 14 16
32 41 40 38 36 41 40 40 38 36 34 34 28 22 22 26 23 18 15 16 15 11 15 10 7 9 9 11 8 8 6 10 11 8 6 5 3 8 4 2 5 2 7 8 7 7 9
39 43 46 39 34 42 40 40 39 38 35 30 26 17 24 29 23 19 15 16 17 17 15 13 8 9 9 10 6 10 6 11 9 10 8 7 1 3 3 5 5 2 5 7 5 5 8
37 43 51 31 33 42 41 41 40 39 36 36 28 9 25 31 27 22 16 15 16 18 11 12 10 12 10 8 8 10 9 8 7 8 9 6 3 3 5 3 3 4 5 6 7 6 9
37 38 46 34 37 41 43 43 42 41 40 38 28 16 20 11 27 24 18 17 17 14 12 13 13 12 11 8 7 11 10 8 4 7 3 6 4 5 3 3 5 5 4 5 6 7 6
40 34 38 37 37 39 43 43 43 41 40 40 29 20 24 15 27 24 21 21 18 18 18 14 12 14 13 13 13 16 15 12 9 7 5 4 7 4 3 2 1 1 3 3 6 6 6
40 41 36 37 34 39 44 44 43 42 43 44 38 26 19 18 22 19 17 18 17 17 13 17 17 14 16 15 12 13 11 8 7 9 5 4 6 4 3 3 2 2 3 4 7 7 7
36 43 34 36 37 40 44 44 43 43 44 38 31 25 22 13 17 16 19 17 19 20 17 23 18 15 16 13 7 6 4 2 4 4 5 7 7 4 4 5 2 4 6 7 3 5 5
34 40 39 37 36 35 43 44 44 43 43 37 31 24 21 18 18 14 18 18 20 20 18 27 21 14 15 10 5 5 4 5 6 4 9 8 10 6 7 3 3 7 9 7 6 6 3
35 33 43 42 36 34 42 43 43 41 39 40 35 28 24 17 22 24 16 16 11 17 13 21 20 16 16 8 8 6 7 6 4 6 6 10 9 10 8 5 3 8 8 6 4 6 5
33 38 41 39 36 37 41 42 43 41 40 40 35 31 24 20 24 23 25 25 21 16 12 18 19 16 14 11 10 7 5 7 3 3 8 9 8 11 10 8 6 10 6 5 9 7 7
32 40 41 42 40 38 41 43 43 41 41 38 35 31 24 23 23 19 18 19 20 21 19 14 11 13 9 8 8 9 7 4 7 8 8 7 5 9 7 7 10 12 10 8 6 6 8
Wind_Direction
239 240 240 241 241 239 237 237 237 238 239 243 245 247 248 250 253 253 256 259 260 260 257 249 241 243 240 237 209 271 265 251 226 219 214 204 219 233 242 247 253 253 263 267 277 292 301
238 238 238 239 240 240 236 236 234 234 234 240 242 243 243 245 248 250 253 256 258 258 254 248 236 232 232 231 204 260 264 237 219 212 203 188 226 234 251 253 262 263 275 272 273 275 277
237 237 235 236 238 239 238 234 232 231 229 236 238 237 237 238 242 246 248 252 257 258 256 249 236 226 229 215 220 238 244 229 214 213 203 215 229 240 256 259 260 267 274 276 277 281 272
237 235 235 233 234 236 236 233 229 229 224 232 233 232 231 233 236 239 242 248 255 257 253 248 232 226 229 225 240 244 239 217 207 209 218 218 247 245 245 256 266 267 265 270 274 271 209
235 233 233 232 231 232 232 230 227 226 221 226 228 227 225 226 229 231 237 244 251 254 244 231 222 222 225 235 235 238 229 215 230 224 222 220 237 239 250 252 262 259 260 260 280 314 276
232 232 230 230 229 228 230 227 224 222 216 219 222 221 218 219 224 222 231 236 247 248 236 218 214 206 226 241 242 223 221 199 204 223 226 231 237 246 243 243 249 251 256 263 278 278 286
231 230 227 227 228 225 227 224 223 219 215 214 216 214 212 214 216 217 219 219 225 245 219 191 210 173 209 214 226 222 216 201 189 215 219 227 230 235 241 241 253 269 278 278 233 302 276
223 228 226 223 226 224 223 223 221 217 215 213 212 207 207 207 210 213 212 216 221 225 212 216 215 208 223 232 213 199 201 202 202 212 220 229 231 247 255 267 282 280 289 290 290 287 173
224 221 224 222 221 222 221 220 221 216 215 214 208 204 206 201 207 210 214 218 214 206 214 229 223 222 222 205 176 221 202 201 210 216 220 228 230 205 261 261 273 276 271 278 281 289 289
209 225 224 220 217 220 220 218 218 216 215 215 206 205 204 200 204 202 213 206 200 197 206 226 234 231 209 185 207 163 215 194 211 227 231 238 244 266 255 265 268 273 277 291 292 283 279
219 213 226 220 216 216 217 217 216 216 214 216 207 207 203 201 203 200 199 196 190 174 238 183 193 221 210 145 184 198 179 201 215 226 232 240 242 254 263 265 261 265 275 284 277 276 283
193 207 220 220 215 213 214 216 213 215 213 215 210 206 204 203 204 205 194 189 179 180 226 181 213 201 168 189 191 181 190 176 208 227 233 242 270 239 258 265 261 268 269 275 273 264 263
205 207 214 222 214 210 211 213 213 212 211 213 212 206 205 203 208 197 188 183 165 235 153 185 175 165 166 178 188 190 177 188 189 196 221 232 239 246 255 261 259 251 266 275 261 237 248
206 207 211 221 212 207 208 210 211 209 209 212 211 206 205 204 200 192 183 177 215 211 194 160 166 159 169 161 164 171 178 188 219 245 270 228 204 207 194 260 283 276 248 257 303 311 325
220 197 213 217 213 205 205 207 208 207 207 211 208 207 204 201 197 189 180 187 203 194 177 162 164 174 187 178 180 182 194 205 187 213 279 328 136 129 181 274 262 328 259 292 300 294 281
214 192 199 205 214 204 202 203 204 203 206 205 204 204 203 197 195 189 184 188 219 183 161 177 177 182 180 189 189 194 194 188 202 205 228 341 205 165 112 242 240 259 313 309 12 328 14
225 211 193 203 212 203 200 200 200 200 201 199 198 200 194 194 191 190 192 202 204 197 172 178 198 197 197 186 188 196 189 163 185 225 187 271 229 131 217 229 57 355 14 346 332 304 312
221 211 198 209 210 202 198 197 196 198 195 191 192 191 193 190 188 192 182 207 195 207 189 176 171 187 188 174 189 186 159 170 193 161 157 209 256 273 118 297 327 350 7 347 343 322 318
216 209 212 194 200 199 195 193 192 193 192 187 184 194 191 187 184 192 196 203 173 188 188 167 160 153 187 175 173 165 195 200 186 188 171 161 240 269 223 14 41 15 360 344 316 293 296
210 214 206 193 197 195 192 190 189 189 189 178 169 197 188 189 178 186 197 193 179 164 178 179 187 164 168 175 175 181 203 189 200 198 189 167 231 346 97 174 298 358 351 355 329 301 346
207 209 205 189 198 191 189 188 187 185 182 177 177 191 195 194 186 171 189 186 183 176 163 163 168 178 172 179 179 176 175 180 193 198 197 140 157 118 94 99 67 57 47 48 55 29 68
191 205 209 192 192 188 188 187 186 183 181 176 169 171 183 191 189 176 174 185 183 177 168 171 178 169 176 172 179 172 166 154 150 147 147 154 168 137 95 76 60 71 78 78 69 70 88
196 191 195 191 192 188 186 186 185 184 178 182 181 177 169 179 189 186 177 171 176 177 167 172 166 161 158 151 130 153 161 150 137 157 151 138 153 168 168 122 25 130 91 84 97 74 48
191 192 187 179 182 184 184 184 183 184 181 189 182 178 163 177 180 169 183 175 182 165 171 161 156 188 173 171 160 173 186 187 172 161 148 165 161 169 149 148 37 136 158 139 122 88 81
183 187 190 187 180 182 182 183 183 184 185 186 177 174 157 161 164 185 173 167 184 169 169 178 166 163 175 178 127 123 140 172 217 221 229 183 185 157 157 186 174 204 171 160 134 126 92
183 186 177 182 184 178 181 183 184 185 184 181 176 169 158 139 160 181 163 168 183 170 176 185 192 178 186 151 172 190 182 212 194 228 211 194 187 197 169 175 213 120 169 175 167 153 164
186 188 175 188 188 184 184 184 185 185 182 180 176 166 171 169 166 146 164 157 168 182 187 185 188 200 214 180 188 195 217 207 216 219 199 189 187 199 168 182 130 159 176 156 191 160 179
192 188 176 184 185 189 187 186 184 182 182 180 175 173 184 178 177 180 173 172 164 157 187 186 184 193 188 169 194 193 205 205 211 192 179 174 177 189 173 199 157 199 160 210 211 207 271
183 181 174 187 187 189 187 185 183 182 182 179 178 183 181 192 179 180 188 186 178 162 172 162 170 195 177 166 195 189 198 171 179 175 175 168 174 186 163 156 157 167 193 220 209 262 295